Regional Weather Roundup
Issued by NWS Northern Indiana

Home | Current Version | Previous Version | Text Only | Print | Product List | Glossary Off
Versions: 1 2 3 4 5 6 7 8 9 10 11 12 13 14 15 16 17 18 19 20 21 22 23 24 25 26 27 28 29 30 31 32 33 34 35 36 37 38 39 40 41 42 43 44 45 46 47 48 49 50

000
ASUS43 KIWX 281800
RWRIWX

KIWX WEATHER ROUNDUP
NATIONAL WEATHER SERVICE NORTHERN INDIANA
200 PM EDT THU APR 28 2016

NOTE: "FAIR" INDICATES FEW OR NO CLOUDS BELOW 12,000 FEET WITH NO
SIGNIFICANT WEATHER AND/OR OBSTRUCTIONS TO VISIBILITY.

* THESE STATIONS ARE NOT UNDER NWS QUALITY CONTROL. THEY ALSO MAY NOT
  REPORT WEATHER SUCH AS PRECIPITATION OR FOG.

INZ001>027-281900-
NORTHERN INDIANA

CITY           SKY/WX    TMP DP  RH WIND       PRES   REMARKS
GARY*          CLOUDY    50  50 100 NE7       29.89S
SOUTH BEND     CLOUDY    51  44  77 E8        29.90R
6HR MIN TEMP:  42; 6HR MAX TEMP:  51; 6HR PCP: TRACE;

ELKHART*       CLOUDY    50  46  87 E14       29.90
GOSHEN         CLOUDY    51  45  79 E15       29.89F
6HR MIN TEMP:  42; 6HR MAX TEMP:  51; 6HR PCP:  0.03;

ANGOLA*        CLOUDY    46  37  71 E10       29.91S
FORT WAYNE     CLOUDY    49  44  83 E16       29.90R
6HR MIN TEMP:  43; 6HR MAX TEMP:  50; 6HR PCP:  0.11;


$$
INZ028>050-281900-
CENTRAL INDIANA

CITY           SKY/WX    TMP DP  RH WIND       PRES   REMARKS
LAFAYETTE      CLOUDY    58  52  80 NE8       29.84F
6HR MIN TEMP:  47; 6HR MAX TEMP:  58;

KOKOMO*        CLOUDY    55  48  76 NE7       29.87R
6HR MIN TEMP:  45; 6HR MAX TEMP:  55;

MUNCIE*        CLOUDY    65  56  72 E9        29.84S
6HR MIN TEMP:  46; 6HR MAX TEMP:  65; 6HR PCP:  0.10;

INDIANAPOLIS   PTSUNNY   73  59  61 SW12      29.79F
6HR MIN TEMP:  51; 6HR MAX TEMP:  73;


$$
MIZ043>046-050>051-056>058-064>065-071>073-077>080-281900-
SOUTHWEST LOWER MICHIGAN

CITY           SKY/WX    TMP DP  RH WIND       PRES   REMARKS
BATTLE CREEK   CLOUDY    45  39  79 E15       29.94F
6HR MIN TEMP:  37; 6HR MAX TEMP:  45; 6HR PCP:  0.14;

BENTON HARBOR  CLOUDY    50  41  71 E8        29.91S
6HR MIN TEMP:  43; 6HR MAX TEMP:  50; 6HR PCP: TRACE;

COLDWATER*     CLOUDY    48  39  71 E10       29.93S
6HR MIN TEMP:  38; 6HR MAX TEMP:  49;

HILLSDALE*     CLOUDY    46  38  73 E14G23    29.92S
6HR MIN TEMP:  38; 6HR MAX TEMP:  46;

HOLLAND        CLOUDY    42  38  85 E13       29.96S
6HR MIN TEMP:  37; 6HR MAX TEMP:  42; 6HR PCP:  0.23;

GRAND RAPIDS   LGT RAIN  41  38  89 E12       29.97F
6HR MIN TEMP:  37; 6HR MAX TEMP:  41; 6HR PCP:  0.40;

KALAMAZOO      CLOUDY    46  39  76 E9G18     29.93F
6HR MIN TEMP:  41; 6HR MAX TEMP:  46; 6HR PCP:  0.01;

STURGIS*       CLOUDY    49  42  75 E13       29.91S
6HR MIN TEMP:  39; 6HR MAX TEMP:  49;

THREE RIVERS*  CLOUDY    49  42  75 E10G16    29.92S
6HR MIN TEMP:  40; 6HR MAX TEMP:  49;


$$
OHZ001>008-015>018-024>025-281900-
NORTHWEST OHIO

CITY           SKY/WX    TMP DP  RH WIND       PRES   REMARKS
DEFIANCE       CLOUDY    52  42  69 E15       29.91F
6HR MIN TEMP:  45; 6HR MAX TEMP:  52; 6HR PCP:  0.01;

FINDLAY        CLOUDY    49  42  77 E8        29.90R
6HR MIN TEMP:  44; 6HR MAX TEMP:  50; 6HR PCP:  0.05;

TOLEDO EXPRESS CLOUDY    48  40  73 NE18G24   29.93S
6HR MIN TEMP:  42; 6HR MAX TEMP:  49; 6HR PCP:  0.03;

TOLEDO METCALF CLOUDY    47  39  74 E14G22    29.95R
6HR MIN TEMP:  44; 6HR MAX TEMP:  47; 6HR PCP:  0.11;

LIMA           CLOUDY    50  47  89 E10       29.88S
6HR MIN TEMP:  44; 6HR MAX TEMP:  50; 6HR PCP:  0.01;


$$
AND FOR LAKE MICHIGAN COASTAL AND OPEN LAKE BUOY OBSERVATIONS

STATION/POSITION TEMP    WIND        PRES    VSBY  WAVE
                 AIR SEA DIR/SP/G                  HT/PER
                 (F)     (DEG/KT/KT) (MB)    (MI)  (FT/S)
CALUMET HARBOR    45      30/ 11/ 13 1011.6R
MICHIGAN CITY     49     100/  5/  6   N/A
BURNS HARBOR      50      90/  7/ 12 1012.5R
SAINT JOSEPH      49      50/  3/  6 1013.2S
SOUTH LAKE BUOY   39 40   80/ 16/ 19 1013.7          4/ 5
4 MI NW BRIDGMAN  48 47  140/ 12/ 14   N/A           2/ 5

$$
&&




USA.gov is the U.S. government's official web portal to all federal, state and local government web resources and services.